Regional Weather Roundup
Issued by NWS Newport/Morehead, NC

Current Version | Previous Version | Graphics & Text | Print | Product List | Glossary On
Versions: 1 2 3 4 5 6 7 8 9 10 11 12 13 14 15 16 17 18 19 20 21 22 23 24 25 26 27 28 29 30 31 32 33 34 35 36 37 38 39 40 41 42 43 44 45 46 47 48 49 50
000 ASUS42 KMHX 020112 RWRMHX WEATHER ROUNDUP FOR EASTERN NORTH CAROLINA NATIONAL WEATHER SERVICE NEWPORT/MOREHEAD CITY NC 800 PM EST SUN MAR 01 2015 NOTE: "FAIR" INDICATES FEW OR NO CLOUDS BELOW 12,000 FEET WITH NO SIGNIFICANT WEATHER AND/OR OBSTRUCTIONS TO VISIBILITY NCZ015>017-031-032-045>047-102-103-020200- NORTH COAST CITY SKY/WX TMP DP RH WIND PRES REMARKS EDENTON LGT RAIN 35 34 96 CALM 30.36F ELIZABETH CITY LGT RAIN 36 35 96 NW6 30.36S KITTY HAWK DRIZZLE 39 39 100 W5 30.33R MANTEO CLOUDY 39 37 93 NW9 30.35R $$ NCZ045>047-081-094-103-104-020200- CENTRAL COAST CITY SKY/WX TMP DP RH WIND PRES REMARKS FRISCO CLOUDY 52 51 97 SW7 30.33S SWANQUARTER N/A 43 N/A N/A NW2G9 30.33S $$ NCZ095-097-098-100-101-020200- SOUTHERN COAST CITY SKY/WX TMP DP RH WIND PRES REMARKS BEAUFORT LGT RAIN 53 52 96 NW12 30.35R FOG CEDAR ISLAND N/A 43 N/A N/A NW9 30.39S JACKSONVILLE RAIN 43 41 93 NW9 30.37S FOG PINEY ISLAND N/A N/A N/A N/A MISG 30.35R WILMINGTON LGT RAIN 45 43 93 N3 30.38R $$ NCZ011>013-027>030-043-044-078>080-089-090>093-098-020200- COASTAL PLAIN CITY SKY/WX TMP DP RH WIND PRES REMARKS AHOSKIE LGT RAIN 32 32 99 CALM 30.37R CLINTON CLOUDY 37 37 100 CALM 30.39F FOG ELIZABETHTOWN CLOUDY 38 38 100 CALM 30.39F GOLDSBORO CLOUDY 37 37 100 CALM 30.37R GREENVILLE DRIZZLE 36 34 93 CALM 30.37F HAVELOCK RAIN 45 43 93 N8 30.37R KENANSVILLE CLOUDY 37 37 99 CALM 30.40S FOG KINSTON RAIN 37 36 93 CALM 30.39S NEW BERN CLOUDY 41 39 93 NW7 30.38S RICHLANDS CLOUDY 39 36 87 W3 30.40R ROCKY MOUNT LGT RAIN 35 34 96 W5 30.39R FOG WASHINGTON CLOUDY 36 34 95 NW3 30.38S WHITEVILLE CLOUDY 39 38 95 CALM 30.39S FOG $$ AMZ130-135-150-152-154-156-158-170-250-252-270-ANZ085-086-088-633-658-670-020200- MARINE OBSERVATIONS STATION/POSITION TIME TEMP WIND PRES WAVE SWELL AIR SEA DIR/SP/G HT/PER HT/PER (UTC) (F) (DEG/KT/KT) (MB) (FT/S) (FT/S) CHESAPEAKE LIGHT 0000 33 310/ 13/ 14 1029.3 64 E VA BEACH 0050 60 60 200/ 16/ 19 1025.2 5/ 5 2/ 9 DUCK 0006 36 34 320/ 17/ 21 1026.6 2 E DUCK 0011 N/A 3/ 5 10 NE DUCK NOT AVBL OREGON INLET 0006 47 40 180/ 11/ 13 1026.2 HATTERAS CG 0006 53 41 190/ 3/ 7 1027.3 CAPE LOOKOUT 0100 56 290/ 5/ 6 1027.0 BEAUFORT LAB 0000 57 42 280/ 2/ 3 1026.3 27 SE WRIGHTSVLE NOT AVBL 5 SE WRIGHTSVLE NOT AVBL 225 S CAPE HAT 0050 69 72 140/ 17/ 19 1029.3 7/ 7 41 SE CHARLESTON 0050 55 68 350/ 12/ 14 1028.2 6/ 9 5/ 9 $$

USA.gov is the U.S. government's official web portal to all federal, state and local government web resources and services.